www.pogodaiklimat.ru

Погода и климат >> Архив погоды >> Финляндия >> Йокиойнен


ПОГОДА в Йокиойнене

  • Прогноз погоды в Йокиойнене
  • Монитор погоды в Йокиойнене

АРХИВ ПОГОДЫ в Йокиойнене

Время (UTC), дата Ветер
(напр.,м/с)
 
Видим.   Явления Облачность Т
(С)
Тd
(С)
f
(%)
Тe
(С)
Тes
(С)
Комфортность P
(гПа)
Po
(гПа)
Тmin
(С)
Tmax
(С)
R
(мм)
R24
(мм)
S
(см)
19 18.08 ЮВ 6-8
{9}
50 км в посл. час дождь 9/4
[]
+17.0 +11.4 70 +16 +16 1008.5 996.2
20 18.08 ЮВ 6-8
{8}
40 км морось 9/9 2000 м
[]
+16.5 +11.9 74 +15 +15 1007.8 995.5
21 18.08 ЮВ 5-8
{9}
50 км в посл. час морось {ливн. осадки, дождь} 10/0 2000 м
[]
+16.6 +12.2 75 +16 +16 1007.6 995.3
22 18.08 ЮВ 4-7
{8}
50 км 10/10 2000 м
[]
+17.5 +12.5 72 +17 +17 1007.1 994.8
23 18.08 Ю 3-5
{10}
26 км ливневой дождь 10/9 600 м
[]
+15.4 +14.0 91 +15 +15 1007.3 995.0 1
00 19.08 ЮВ 4-7
{7}
14 км слаб. дождь 10/10
[]
+14.8 +14.2 96 +14 +14 1006.5 994.1 0.7
01 19.08 ЮВ 6-7
{8}
10 км дождь 9/9 2000 м
[]
+14.8 +14.3 97 +13 +13 1005.4 993.1 1
02 19.08 ЮВ 6-8
{10}
9000 м дождь 9/6 1000 м
[]
+14.9 +14.4 97 +13 +13 1004.7 992.4 1
03 19.08 ЮВ 5-8
{9}
4900 м дождь 9/9 1000 м
[]
+15.1 +14.7 97 +14 +14 1004.2 991.8 3
04 19.08 ЮВ 5-9
{9}
4800 м дождь 10/10 100 м
[]
+15.1 +14.8 98 +14 +14 1003.8 991.4 3
05 19.08 ЮВ 5-10
{10}
6000 м слаб. дождь 10/10 100 м
[]
+15.4 +15.1 98 +14 +14 1003.2 990.9 2
06 19.08 ЮВ 5-8
{10}
8000 м морось {дождь} 10/10 100 м
[]
+15.8 +15.4 97 +15 +15 1002.9 990.6 +14.8 +17.9 13
07 19.08 Ю 4-7
{9}
3500 м сильн. морось 10/10 50 м
[]
+16.1 +15.8 98 +15 +15 1003.4 991.1 0.8
08 19.08 Ю 4-6
{7}
30 км в посл. час морось 9/9 50 м
[]
+17.3 +17.0 98 +17 +17 1003.3 991.1 0.3
09 19.08 Ю 5-8
{8}
26 км в посл. час морось {ливн. осадки, дождь} 9/9 200 м
[]
+18.4 +17.4 94 +19 +19 1004.1 991.9
10 19.08 ЮЗ 4-7
{10}
50 км 10/10 300 м
[]
+17.5 +16.0 91 +17 +17 1005.2 993.0
11 19.08 ЮЗ 4-9
{9}
45 км 1/0 600 м
[]
+19.0 +13.8 72 +20 +26 1005.8 993.7
12 19.08 ЮЗ 4-10
{10}
35 км {ливн. осадки, дождь} 9/9 600 м
[]
+20.3 +13.6 65 +23 +23 комфорт 1006.6 994.4
13 19.08 ЮЗ 5-9
{11}
40 км 4/0 600 м
[]
+20.0 +13.0 64 +22 +25 комфорт 1007.1 994.9
14 19.08 ЮЗ 6-10
{11}
40 км 1/0
[]
+19.7 +13.1 66 +21 +23 комфорт 1008.1 995.9
15 19.08 ЮЗ 6-10
{11}
45 км 6/6 600 м
[]
+19.1 +12.9 67 +20 +20 1008.8 996.6
16 19.08 ЮЗ 6-9
{11}
40 км 1/0 1000 м
[]
+18.9 +12.6 67 +19 +20 1009.2 997.0
17 19.08 ЮЗ 4-7
{10}
50 км 1/0 600 м
[]
+17.8 +12.3 70 +18 +18 1009.8 997.5
18 19.08 ЮЗ 4-6
{7}
40 км ясно +16.4 +12.9 80 +16 +16 1010.6 998.2 +15.7 +20.7 1
19 19.08 ЮЗ 4-6
{6}
50 км ясно +15.3 +13.2 87 +14 +14 1011.1 998.7
20 19.08 ЮЗ 4-5
{7}
45 км ясно +14.5 +12.8 90 +13 +13 1011.8 999.3
21 19.08 Ю 3-5
{6}
35 км ясно +13.7 +12.6 93 +12 +12 1012.2 999.7
22 19.08 Ю 3-4
{5}
21 км ясно +13.2 +12.6 96 +12 +12 1012.3 999.8
23 19.08 Ю 3-4
{5}
15 км ясно +12.6 +12.3 98 +11 +11 1012.6 1000.0
00 20.08 Ю 3-5
{5}
14 км 1/1 2000 м
[]
+12.9 +12.6 98 +11 +11 1012.8 1000.3
01 20.08 Ю 3-6
{6}
13 км 1/0 2000 м
[]
+13.2 +13.0 99 +12 +12 1013.0 1000.4
02 20.08 Ю 3-5
{5}
11 км 6/6 50 м
[]
+13.4 +13.2 99 +12 +12 1013.4 1000.8
03 20.08 Ю 3-5
{6}
11 км 10/10 50 м
[]
+14.2 +13.9 98 +13 +13 1013.9 1001.4
04 20.08 ЮЗ 5-7
{8}
8000 м дымка 9/0 50 м
[]
+14.9 +14.7 99 +13 +13 1014.2 1001.7
05 20.08 ЮЗ 5-8
{8}
13 км 10/10 50 м
[]
+15.5 +15.0 97 +14 +14 1014.4 1002.0
06 20.08 ЮЗ 5-7
{8}
29 км {дымка} 9/9 100 м
[]
+16.6 +15.4 93 +16 +16 1014.7 1002.3 +12.4 +16.6
07 20.08 ЮЗ 4-9
{9}
29 км 6/6 300 м
[]
+17.7 +14.5 82 +17 +19 1015.0 1002.7
08 20.08 ЮЗ 4-6
{8}
45 км 4/1 600 м
[]
+18.1 +13.4 74 +18 +22 1015.1 1002.7
09 20.08 ЮЗ 5-10
{10}
40 км 4/1 600 м
[]
+18.8 +12.1 65 +19 +23 1015.4 1003.1
10 20.08 ЮЗ 5-12
{12}
35 км 1/0 1500 м
[]
+19.8 +11.2 58 +21 +26 комфорт 1015.6 1003.4
11 20.08 ЮЗ 5-9
{12}
35 км 4/4 1000 м
[]
+21.1 +11.0 52 +23 +26 комфорт 1015.8 1003.6
12 20.08 ЮЗ 5-10
{12}
45 км 1/1 1000 м
[]
+20.1 +10.6 54 +21 +25 комфорт 1016.3 1004.0
13 20.08 ЮЗ 6-11
{11}
35 км 6/4 1000 м
[]
+20.6 +11.3 55 +22 +24 комфорт 1016.6 1004.3
14 20.08 ЮЗ 3-7
{11}
40 км 4/1 1000 м
[]
+20.3 +12.0 59 +23 +25 комфорт 1016.9 1004.7
15 20.08 ЮЗ 5-10
{12}
35 км 4/4 1000 м
[]
+19.5 +11.2 59 +21 +21 комфорт 1017.3 1005.0
16 20.08 ЮЗ 5-10
{11}
30 км 1/0 1000 м
[]
+18.3 +11.6 65 +18 +19 1017.5 1005.2
17 20.08 ЮЗ 6-7
{10}
29 км ясно +17.5 +12.1 71 +17 +17 1017.8 1005.5
18 20.08 Ю 5-7
{9}
30 км 1/1 600 м
[]
+16.4 +12.2 76 +15 +15 1018.3 1005.9 +16.2 +21.4
19 20.08 ЮЗ 4-6
{8}
35 км ясно +15.3 +12.2 82 +14 +14 1018.6 1006.1
20 20.08 ЮЗ 4-6
{6}
28 км ясно +14.6 +12.5 87 +13 +13 1019.0 1006.5
21 20.08 Ю 4-5
{6}
23 км ясно +14.0 +12.8 92 +12 +12 1019.3 1006.7
22 20.08 ЮЗ 4-6
{6}
19 км ясно +13.9 +13.1 95 +12 +12 1019.3 1006.7
23 20.08 Ю 4-6
{6}
16 км ясно +13.6 +13.0 96 +12 +12 1019.5 1006.9
00 21.08 Ю 4-6
{6}
17 км ясно +13.6 +13.1 97 +12 +12 1019.7 1007.1
01 21.08 Ю 4-6
{6}
16 км ясно +13.6 +13.2 97 +12 +12 1020.1 1007.5
02 21.08 Ю 3-5
{6}
13 км 9/9 100 м
[]
+13.9 +13.6 98 +13 +13 1020.1 1007.5
03 21.08 Ю 2-4
{5}
11 км 4/1 100 м
[]
+13.9 +13.6 98 +13 +13 1020.1 1007.5
04 21.08 Ю 4-6
{7}
12 км 9/9 50 м
[]
+14.9 +14.5 97 +14 +14 1020.3 1007.8
05 21.08 Ю 5-7
{7}
18 км 9/9 100 м
[]
+15.1 +14.5 96 +14 +14 1020.5 1007.9
06 21.08 ЮЗ 4-6
{7}
23 км 9/9 100 м
[]
+15.9 +14.7 93 +15 +15 1020.5 1008.0 +13.4 +16.4
07 21.08 ЮЗ 4-7
{7}
40 км 1/0 300 м
[]
+16.5 +14.0 85 +16 +19 1020.7 1008.2
08 21.08 ЮЗ 3-5
{7}
40 км 1/0 300 м
[]
+17.1 +13.5 79 +17 +22 1020.4 1007.9
09 21.08 Ю 5-8
{8}
30 км 1/0
[]
+19.4 +13.5 69 +21 +25 комфорт 1020.1 1007.8
10 21.08 З 4-9
{9}
10 км ливневой дождь 9/4 600 м
[]
+16.0 +12.4 79 +15 +17 1020.5 1008.0 0.3
11 21.08 ЮЗ 2-5
{9}
45 км в посл. час дождь 4/1 1000 м
[]
+17.3 +14.3 83 +18 +24 1020.3 1007.8 3
12 21.08 Ю 2-3
{6}
35 км в посл. час дождь {ливн. осадки, метель} 1/0
[]
+19.1 +11.7 62 +21 +28 комфорт 1019.7 1007.3
13 21.08 ЮЗ 4-6
{6}
45 км 4/4 1000 м
[]
+19.3 +11.6 61 +20 +23 1019.1 1006.7
14 21.08 З 2-3
{5}
35 км 4/4 1000 м
[]
+20.7 +9.8 50 +23 +26 комфорт 1019.0 1006.7
15 21.08 ЮЗ 3-6
{7}
35 км ясно +20.2 +8.6 47 +22 +24 комфорт 1018.6 1006.3
16 21.08 ЮЗ 4-7
{8}
45 км ясно +19.4 +8.1 48 +20 +21 1018.8 1006.5
17 21.08 ЮЗ 3-5
{7}
50 км ясно +17.8 +9.6 59 +18 +18 1019.1 1006.7
18 21.08 ЮЗ 3-5
{5}
50 км {метель} ясно +15.6 +10.3 71 +15 +15 1019.5 1007.0 +14.3 +21.1 4
19 21.08 ЮЗ 3-4
{4}
50 км ясно +13.6 +9.9 78 +12 +12 1019.9 1007.3
20 21.08 З 2-3
{5}
50 км 1/0 1000 м
[]
+12.3 +9.8 85 +11 +11 1020.1 1007.5
21 21.08 ЮЗ 2-2
{3}
35 км 1/0 600 м
[]
+10.7 +9.9 95 +9 +9 1020.3 1007.6
22 21.08 ЮЗ 3-3
{4}
26 км ясно +9.9 +9.6 98 +7 +7 1020.1 1007.4
23 21.08 ЮЗ 2-3
{3}
11 км ясно +9.3 +9.2 99 +7 +7 1020.2 1007.4
00 22.08 ЮЗ 2-4
{4}
12 км ясно +10.1 +10.0 99 +8 +8 1020.4 1007.6
01 22.08 ЮЗ 2-3
{4}
4600 м дымка ясно +9.4 +9.3 99 +8 +8 1020.5 1007.7
02 22.08 ЮЗ 3-4
{4}
6000 м дымка 4/1
[]
+10.4 +10.4 100 +8 +8 1020.6 1007.8
03 22.08 ЮЗ 3-4
{4}
10 км 10/10 2000 м
[]
+11.2 +11.1 99 +9 +9 1020.6 1007.9
04 22.08 ЮЗ 3-4
{4}
8000 м дымка 1/0 2000 м
[]
+10.9 +10.8 99 +9 +9 1021.0 1008.3
05 22.08 ЮЗ 2-3
{4}
19 км ясно +12.3 +11.9 97 +11 +12 1021.1 1008.4
06 22.08 ЮЗ 2-4
{4}
30 км {дымка} ясно +14.0 +13.0 94 +13 +16 1021.1 1008.5 +9.0 +15.6
07 22.08 ЮЗ 3-5
{6}
40 км 6/6 300 м
[]
+15.4 +13.3 87 +15 +16 1021.5 1008.9
08 22.08 З 3-5
{6}
40 км 4/4 600 м
[]
+16.7 +11.6 72 +16 +20 1021.6 1009.1
09 22.08 З 3-6
{9}
50 км 1/0 600 м
[]
+18.1 +11.4 65 +18 +25 1021.8 1009.4
10 22.08 ЮЗ 4-8
{8}
40 км 4/4 1000 м
[]
+19.5 +9.7 53 +21 +24 комфорт 1021.8 1009.4
11 22.08 З 3-6
{10}
30 км 4/4 1000 м
[]
+18.8 +9.3 54 +20 +24 1021.9 1009.5
12 22.08 З 5-10
{10}
30 км ясно +19.3 +9.9 54 +20 +24 1022.1 1009.7
13 22.08 З 5-8
{9}
35 км ясно +20.4 +9.2 49 +22 +25 комфорт 1022.1 1009.8
14 22.08 З 3-6
{9}
45 км 1/0 1000 м
[]
+20.7 +8.7 46 +22 +26 комфорт 1022.2 1009.9
15 22.08 З 3-7
{9}
40 км 1/0 1500 м
[]
+19.8 +7.2 44 +21 +23 комфорт 1022.2 1009.9
16 22.08 З 3-6
{8}
50 км 1/0 1500 м
[]
+19.3 +8.8 51 +20 +21 1022.2 1009.8
17 22.08 ЮЗ 4-8
{8}
50 км 1/0 1000 м
[]
+17.4 +10.1 62 +17 +17 1022.5 1010.0
18 22.08 ЮЗ 5-7
{7}
50 км ясно +15.7 +11.8 78 +15 +15 1022.8 1010.3 +14.0 +20.7
19 22.08 ЮЗ 2-3
{8}
45 км ясно +13.6 +10.3 80 +13 +13 1023.3 1010.7
20 22.08 ЮЗ 3-5
{5}
40 км 9/0
[]
+13.2 +10.9 86 +12 +12 1023.5 1010.8
21 22.08 ЮЗ 3-4
{5}
30 км 9/1 1500 м
[]
+12.8 +11.3 91 +11 +11 1023.4 1010.7
22 22.08 Ю 3-4
{6}
30 км 9/0
[]
+13.1 +11.9 92 +12 +12 1022.9 1010.3
23 22.08 Ю 3-5
{6}
30 км 9/4 1500 м
[]
+13.6 +12.4 92 +12 +12 1022.5 1009.9
00 23.08 ЮЗ 3-4
{6}
20 км морось {дождь} 9/4 600 м
[]
+13.8 +12.9 94 +13 +13 1022.4 1009.8
01 23.08 ЮЗ 2-3
{7}
9000 м дождь 10/10 1000 м
[]
+12.6 +12.2 97 +12 +12 1022.8 1010.2 3
02 23.08 Ю 2-3
{3}
21 км морось 10/10 2000 м
[]
+12.1 +11.8 98 +11 +11 1022.2 1009.6 0.6
03 23.08 Ю 3-6
{6}
13 км слаб. ливневой дождь 9/6 50 м
[]
+12.7 +12.5 99 +11 +11 1021.8 1009.1 0.1
04 23.08 Ю 5-7
{7}
15 км слаб. дождь 9/6 50 м
[]
+12.8 +12.6 99 +10 +10 1021.6 1008.9 0.4
05 23.08 Ю 4-7
{7}
35 км в посл. час дождь 9/1 600 м
[]
+12.8 +12.4 97 +11 +11 1020.5 1007.9 0.1
06 23.08 Ю 5-7
{7}
40 км {ливн. осадки, дождь} 9/9 100 м
[]
+13.5 +13.1 97 +11 +12 1020.2 1007.6 +12.1 +15.8 4
07 23.08 Ю 4-8
{8}
26 км слаб. ливневой дождь 9/9 100 м
[]
+14.5 +13.9 96 +13 +13 1019.9 1007.3
08 23.08 ЮЗ 5-8
{8}
35 км 1/0 300 м
[]
+17.1 +15.3 89 +16 +20 1019.2 1006.8
09 23.08 ЮЗ 7-13
{13}
35 км {ливн. осадки, дождь} 4/4 600 м
[]
+17.4 +12.6 73 +16 +18 1019.3 1006.9
10 23.08 ЮЗ 4-9
{10}
40 км 4/4 600 м
[]
+18.3 +12.3 68 +18 +22 1019.2 1006.8
11 23.08 ЮЗ 5-10
{10}
40 км 9/1 1000 м
[]
+18.2 +11.5 65 +18 +20 1018.8 1006.4
12 23.08 ЮЗ 6-11
{11}
35 км {ливн. осадки, дождь} 9/1 1000 м
[]
+17.9 +12.0 68 +17 +19 1018.4 1006.0
13 23.08 ЮЗ 6-9
{11}
28 км слаб. дождь 9/1 600 м
[]
+16.5 +12.7 78 +15 +17 1017.8 1005.3
14 23.08 ЮЗ 5-8
{9}
19 км слаб. дождь 9/6 600 м
[]
+15.2 +13.5 90 +14 +14 1017.1 1004.7 0.3
15 23.08 ЮЗ 2-5
{8}
5000 м слаб. дождь {морось} 9/9 100 м
[]
+14.1 +13.7 97 +13 +14 1016.7 1004.2 3
16 23.08 Ю 4-5
{6}
3300 м слаб. ливневой дождь 10/10 100 м
[]
+14.0 +13.7 98 +12 +12 1015.6 1003.0 0.1
17 23.08 ЮЗ 4-7
{9}
9000 м морось 9/9 50 м
[]
+14.4 +14.1 98 +13 +13 1015.2 1002.7 0.5
18 23.08 ЮЗ 4-8
{8}
17 км {ливн. осадки, дождь} 9/9 100 м
[]
+14.6 +14.2 97 +13 +13 1015.2 1002.7 +13.5 +18.8 3
19 23.08 З 4-6
{7}
15 км 6/6 100 м
[]
+14.6 +14.2 97 +13 +13 1015.6 1003.2
20 23.08 З 3-6
{7}
21 км 9/9 200 м
[]
+14.6 +14.2 97 +14 +14 1015.9 1003.4
21 23.08 З 3-5
{7}
20 км 9/9 100 м
[]
+14.3 +13.9 97 +13 +13 1016.1 1003.6
22 23.08 З 3-5
{6}
29 км 4/4 100 м
[]
+13.9 +13.5 97 +13 +13 1016.6 1004.0
23 23.08 З 3-5
{6}
24 км 6/6 100 м
[]
+13.6 +13.2 97 +12 +12 1016.9 1004.4
00 24.08 З 2-4
{6}
17 км 9/1 100 м
[]
+12.9 +12.6 98 +12 +12 1017.1 1004.5
01 24.08 З 3-6
{6}
8000 м дымка 9/9 50 м
[]
+12.9 +12.7 99 +11 +11 1017.7 1005.1
02 24.08 З 3-5
{6}
16 км 10/10 50 м
[]
+13.2 +12.9 98 +12 +12 1018.1 1005.5
03 24.08 З 3-5
{5}
12 км 9/9 50 м
[]
+12.6 +12.4 99 +11 +11 1018.7 1006.1
04 24.08 З 3-6
{6}
11 км 9/9 <50 м
[]
+12.6 +12.4 99 +11 +11 1019.3 1006.7
05 24.08 З 3-5
{5}
30 км 1/0 50 м
[]
+13.2 +12.6 96 +12 +13 1019.9 1007.3
06 24.08 З 3-5
{7}
45 км {дымка} 1/1 300 м
[]
+14.3 +12.6 90 +13 +15 1020.6 1008.0 +12.3 +14.9
07 24.08 СЗ 3-6
{9}
40 км 9/9 300 м
[]
+14.7 +12.4 86 +14 +14 1021.3 1008.7
08 24.08 З 3-7
{10}
50 км 4/4 300 м
[]
+15.9 +11.8 77 +15 +19 1022.1 1009.6
09 24.08 СЗ 4-8
{8}
40 км 4/4 600 м
[]
+17.6 +11.4 67 +17 +21 1022.6 1010.2
10 24.08 СЗ 4-8
{8}
35 км 1/0 600 м
[]
+18.1 +10.3 60 +18 +24 1022.8 1010.4
11 24.08 СЗ 5-9
{9}
40 км 1/0 1000 м
[]
+19.1 +9.0 52 +20 +24 1023.2 1010.8
12 24.08 СЗ 3-7
{9}
35 км 4/4 1000 м
[]
+19.7 +8.9 50 +21 +25 комфорт 1023.6 1011.2
13 24.08 З 3-6
{9}
35 км 4/0 1000 м
[]
+20.0 +9.3 50 +22 +26 комфорт 1024.2 1011.8
14 24.08 З 3-6
{9}
40 км 6/0 1000 м
[]
+19.6 +8.7 49 +21 +23 комфорт 1024.5 1012.1
15 24.08 СЗ 4-6
{8}
50 км ясно +18.6 +8.7 52 +19 +21 1024.8 1012.3
16 24.08 СЗ 3-6
{7}
40 км ясно +19.0 +9.6 54 +20 +21 1025.0 1012.6
17 24.08 СЗ 2-4
{6}
50 км ясно +17.1 +10.1 63 +17 +18 1025.5 1013.0
18 24.08 СЗ 3-4
{5}
50 км 4/0
[]
+15.7 +10.5 71 +15 +15 1026.0 1013.4 +14.3 +20.6
19 24.08 СЗ 2-4
{5}
50 км 6/0
[]
+14.1 +10.4 78 +14 +14 1026.6 1014.0
20 24.08 СЗ 2-3
{4}
45 км ясно +12.0 +10.1 88 +11 +11 1026.9 1014.2
21 24.08 СЗ 2-2
{3}
29 км ясно +10.4 +9.8 96 +9 +9 1027.1 1014.3
22 24.08 З 2-2
{3}
27 км ясно +9.9 +9.7 99 +8 +8 1027.4 1014.5
23 24.08 СЗ 1-2
{2}
900 м туман ясно +8.4 +8.2 99 +7 +7 1027.6 1014.7
00 25.08 З 1-2
{2}
4900 м в посл. час туман ясно +7.7 +7.6 99 +7 +7 1028.0 1015.1
01 25.08 З 1-2
{2}
1700 м в посл. час туман ясно +6.7 +6.6 99 +5 +5 1028.4 1015.4
02 25.08 З 1-1
{2}
3300 м дымка ясно +6.3 +6.2 99 +5 +5 1028.5 1015.5
03 25.08 штиль 0
{2}
600 м туман ясно +5.1 +5.1 100 +4 +4 1028.6 1015.5
04 25.08 ЮЗ 1-1
{1}
14 км в посл. час туман 6/0 <50 м
[]
+6.2 +6.2 100 +5 +5 1028.6 1015.5
05 25.08 СВ 1-1
{2}
19 км 1/0
[]
+8.6 +8.5 99 +8 +9 1028.5 1015.6
06 25.08 Ю 1-2
{2}
30 км {туман, метель} ясно +12.4 +11.2 92 +12 +15 1028.5 1015.7 +4.9 +15.7
07 25.08 Ю 3-5
{5}
40 км 1/0
[]
+14.8 +11.1 78 +14 +18 1028.2 1015.6
08 25.08 ЮЗ 3-5
{5}
40 км ясно +17.0 +11.5 70 +17 +22 1028.0 1015.4
09 25.08 Ю 3-5
{5}
40 км 1/0
[]
+18.3 +10.4 60 +19 +25 1027.6 1015.1
10 25.08 ЮЗ 3-5
{6}
35 км 1/0
[]
+19.4 +9.0 51 +21 +27 комфорт 1027.5 1015.0
11 25.08 ЮЗ 5-8
{8}
30 км 1/0
[]
+20.8 +8.7 46 +22 +27 комфорт 1027.1 1014.8
12 25.08 ЮЗ 5-8
{8}
40 км 1/1
[]
+20.8 +9.9 50 +22 +26 комфорт 1026.6 1014.2
13 25.08 ЮЗ 4-8
{10}
35 км 1/0 1000 м
[]
+21.8 +11.8 53 +24 +28 комфорт 1025.9 1013.6
14 25.08 ЮЗ 5-9
{10}
40 км 1/0 1000 м
[]
+21.3 +12.1 56 +23 +26 комфорт 1025.4 1013.1
15 25.08 ЮЗ 6-10
{11}
35 км 1/0
[]
+20.6 +12.2 59 +23 +23 комфорт 1025.1 1012.7
16 25.08 ЮЗ 7-12
{12}
45 км ясно +19.4 +12.3 63 +20 +20 1024.7 1012.3
17 25.08 ЮЗ 4-8
{10}
45 км ясно +18.2 +13.4 74 +18 +18 1024.5 1012.1

 

Местоположение метеостанции Йокиойнен (Финляндия): широта 60.81 долгота 23.50 высота над уровнем моря 104 м.

В архиве по умолчанию представлена погода в Йокиойнене за последнюю неделю. Архивные данные за месяц целиком и за предыдущие месяцы, начиная с января 2011 года, Вы можете получить, выбрав интересующий диапазон дат из раскрывающегося списка и нажав кнопку "Ввод!".


*Определитесь, кто Вы:
робот инопланетянин человек

Внимание! Время в таблицах - всемирное. Для получения местного времени необходимо прибавить поправку, которая равна 1 ч.

Смотрите также архив погоды в соседних городах и на ближайших метеорологических станциях:

Погода в Сомеро Салкола (Финляндия) (25 км)
Погода в Аэропорту Сало Киикала (Финляндия) (40 км)
Погода в Сало (Финляндия) (53 км)
Погода в Лепаа (Финляндия) (55 км)
Погода в Хямеэнлинна (Финляндия) (58 км)
Погода в Вихти (Финляндия) (66 км)
Погода в Аэропорту Пирккала (Финляндия) (68 км)
Погода в Пиккио Йолтoнен (Финляндия) (70 км)
Погода в Лохья Порла (Финляндия) (70 км)
Погода в Нурмиярви (Финляндия) (71 км)

Пояснения к столбцам:

Ветер - указаны скорость ветра в м/с - средняя за 10 мин, порывы в срок и между сроками (в фигурных скобках) и направление, откуда дует ветер: С - северный, СВ - северо-восточный, В - восточный, ЮВ - юго-восточный, Ю - южный, ЮЗ - юго-западный, З - западный, СЗ - северо-западный.
Видимость - горизонтальная дальность видимости в метрах или километрах. При видимости от 1 до 10 км при отсутствии осадков обычно наблюдается дымка, при ухудшении видимости до 1 км и менее - туман. В сухую погоду видимость может ухудшаться дымом, пылью или мглою.
Явления - указаны атмосферные явления, наблюдавшиеся в срок или в последний час перед сроком; фигурными скобками обозначены явления, наблюдавшиеся между сроками (за 1-3 часа до срока); квадратными скобками обозначены град или гололедные отложения с указанием их диаметра в мм.
Облачность - указаны через наклонную черту общая и нижняя облачность в баллах и высота нижней границы облаков в метрах; квадратными скобками обозначены формы облаков: Ci - перистые, Cs - перисто-слоистые, Cc - перисто-кучевые, Ac - высококучевые, As - высокослоистые, Sc - слоисто-кучевые, Ns - слоисто-дождевые, Cu - кучевые, Cb - кучево-дождевые. Подробнее классификацию облаков см. в Атласе облаков (PDF).
T - Температура воздуха - температура, измеренная на высоте 2 м над землей.
Td - Температура точки росы - температура, при понижении до которой содержащийся в воздухе водяной пар достигнет насыщения.
f - Относительная влажность воздуха - влажноcть воздуха, измеренная на высоте 2 м над землей.
Te - Эффективная температура - температура, которую ощущает одетый по сезону человек в тени. Характеристика душности погоды. При расчете учитывается влияние влажности воздуха и скорости ветра на теплоощущения человека.
Tes - Эффективная температура на солнце - температура, которую ощущает человек, с поправкой на солнечный нагрев. Характеристика знойности погоды. Зависит от высоты солнца над горизонтом, облачности и скорости ветра. Ночью, в пасмурную погоду, а также при ветре 12 м/с и более поправка равна нулю.
P - Атмосферное давление - приведенное к уровню моря атмосферное давление.
Po - Атмосферное давление - измеренное на уровне метеостанции атмосферное давление.
Tmin - Минимальная температура - минимум температуры воздуха на высоте 2 м над землей.
Tmax - Максимальная температура - максимум температуры воздуха на высоте 2 м над землей.
R - Количество осадков - Количество выпавших осадков за период времени, мм. При наведении курсора мыши на число - период времени, за который выпало указанное количество осадков.
R24 - Количество осадков - Количество выпавших осадков за 24 часа, мм.
S - Снежный покров - Высота снежного покрова, см. При наведении курсора мыши на число - состояние снежного покрова и степень покрытия местности в баллах.